When you browse on this site, cookies collect data to enhance your experience and personalize the content and advertising you see.
Visit our Privacy Policy to learn more. By continuing to use the site, you agree to this use of cookies and data.
  • en France
  • Liste des pays
  • À 7 jours
  • Température de l'eau
  • Carte météo
  • Widgets météo
  • user-avatar
    Se connecter

    Météo par heure à Kabve

    Ce jour, 26 Août, Lundi

    Heure Température Précipitation Vent Pression Humidité
    00:00 +17°C° 0 mm 2 m/s 664 mmHg 74%
    01:00 +17°C° 0 mm 2 m/s 663 mmHg 77%
    02:00 +16°C° 0 mm 2 m/s 663 mmHg 79%
    03:00 +16°C° 0 mm 2 m/s 663 mmHg 80%
    04:00 +15°C° 0 mm 2 m/s 663 mmHg 81%
    05:00 +15°C° 0 mm 2 m/s 663 mmHg 82%
    06:00 +17°C° 0 mm 3 m/s 664 mmHg 75%
    07:00 +19°C° 0 mm 3 m/s 665 mmHg 68%
    08:00 +21°C° 0 mm 4 m/s 666 mmHg 61%
    09:00 +23°C° 0 mm 4 m/s 666 mmHg 52%
    10:00 +27°C° 0 mm 4 m/s 666 mmHg 44%
    11:00 +30°C° 0 mm 3 m/s 666 mmHg 36%
    12:00 +30°C° 0 mm 3 m/s 666 mmHg 33%
    13:00 +31°C° 0 mm 3 m/s 665 mmHg 30%
    14:00 +33°C° 0 mm 3 m/s 664 mmHg 27%
    15:00 +31°C° 0 mm 3 m/s 664 mmHg 29%
    16:00 +30°C° 0 mm 3 m/s 664 mmHg 31%
    17:00 +29°C° 0 mm 3 m/s 663 mmHg 32%
    18:00 +27°C° 0 mm 2 m/s 663 mmHg 36%
    19:00 +26°C° 0 mm 2 m/s 664 mmHg 40%
    20:00 +24°C° 0 mm 2 m/s 664 mmHg 43%
    21:00 +23°C° 0 mm 2 m/s 664 mmHg 46%
    22:00 +23°C° 0 mm 2 m/s 664 mmHg 49%
    23:00 +21°C° 0 mm 2 m/s 663 mmHg 51%

    Demain, 27 Août, Mardi

    Heure Température Précipitation Vent Pression Humidité
    00:00 +21°C° 0 mm 2 m/s 663 mmHg 54%
    01:00 +20°C° 0 mm 2 m/s 663 mmHg 56%
    02:00 +19°C° 0 mm 2 m/s 663 mmHg 58%
    03:00 +20°C° 0 mm 1 m/s 662 mmHg 60%
    04:00 +19°C° 0 mm 1 m/s 662 mmHg 62%
    05:00 +18°C° 0 mm 1 m/s 662 mmHg 65%
    06:00 +20°C° 0 mm 1 m/s 663 mmHg 58%
    07:00 +21°C° 0 mm 2 m/s 664 mmHg 52%
    08:00 +24°C° 0 mm 2 m/s 665 mmHg 46%
    09:00 +27°C° 0 mm 3 m/s 665 mmHg 39%
    10:00 +29°C° 0 mm 3 m/s 666 mmHg 32%
    11:00 +33°C° 0 mm 3 m/s 666 mmHg 25%
    12:00 +34°C° 0 mm 3 m/s 665 mmHg 23%
    13:00 +35°C° 0 mm 3 m/s 664 mmHg 21%
    14:00 +35°C° 0 mm 3 m/s 664 mmHg 19%
    15:00 +34°C° 0 mm 3 m/s 663 mmHg 20%
    16:00 +34°C° 0 mm 3 m/s 663 mmHg 21%
    17:00 +32°C° 0 mm 2 m/s 663 mmHg 21%
    18:00 +30°C° 0 mm 2 m/s 663 mmHg 25%
    19:00 +28°C° 0 mm 2 m/s 663 mmHg 30%
    20:00 +26°C° 0 mm 3 m/s 663 mmHg 34%
    21:00 +24°C° 0 mm 2 m/s 663 mmHg 37%
    22:00 +23°C° 0 mm 2 m/s 662 mmHg 41%
    23:00 +20°C° 0 mm 2 m/s 662 mmHg 44%

    Après-demain, 28 Août, Mercredi

    Heure Température Précipitation Vent Pression Humidité
    00:00 +20°C° 0 mm 2 m/s 662 mmHg 46%
    01:00 +19°C° 0 mm 2 m/s 661 mmHg 47%
    02:00 +18°C° 0 mm 2 m/s 661 mmHg 48%
    03:00 +18°C° 0 mm 2 m/s 661 mmHg 49%
    04:00 +17°C° 0 mm 2 m/s 661 mmHg 50%
    05:00 +17°C° 0 mm 2 m/s 661 mmHg 51%
    06:00 +19°C° 0 mm 2 m/s 662 mmHg 45%
    07:00 +21°C° 0 mm 3 m/s 663 mmHg 39%
    08:00 +24°C° 0 mm 3 m/s 664 mmHg 34%
    09:00 +27°C° 0 mm 3 m/s 664 mmHg 28%
    10:00 +30°C° 0 mm 3 m/s 665 mmHg 23%
    11:00 +34°C° 0 mm 3 m/s 665 mmHg 18%
    12:00 +34°C° 0 mm 3 m/s 664 mmHg 18%
    13:00 +34°C° 0 mm 3 m/s 664 mmHg 17%
    14:00 +35°C° 0 mm 3 m/s 663 mmHg 17%
    15:00 +34°C° 0 mm 3 m/s 662 mmHg 17%
    16:00 +34°C° 0 mm 3 m/s 662 mmHg 18%
    17:00 +33°C° 0 mm 3 m/s 662 mmHg 18%
    18:00 +30°C° 0 mm 2 m/s 662 mmHg 22%
    19:00 +27°C° 0 mm 2 m/s 662 mmHg 25%
    20:00 +25°C° 0 mm 2 m/s 662 mmHg 29%
    21:00 +24°C° 0 mm 2 m/s 662 mmHg 32%
    22:00 +22°C° 0 mm 3 m/s 662 mmHg 35%
    23:00 +21°C° 0 mm 3 m/s 662 mmHg 38%

    29 Août, Jeudi

    Heure Température Précipitation Vent Pression Humidité
    00:00 +21°C° 0 mm 3 m/s 662 mmHg 37%
    01:00 +20°C° 0 mm 3 m/s 661 mmHg 37%
    02:00 +20°C° 0 mm 3 m/s 661 mmHg 37%
    03:00 +19°C° 0 mm 2 m/s 661 mmHg 39%
    04:00 +19°C° 0 mm 2 m/s 661 mmHg 40%
    05:00 +18°C° 0 mm 2 m/s 661 mmHg 41%
    06:00 +20°C° 0 mm 3 m/s 662 mmHg 37%
    07:00 +22°C° 0 mm 4 m/s 663 mmHg 32%
    08:00 +25°C° 0 mm 4 m/s 664 mmHg 28%
    09:00 +27°C° 0 mm 4 m/s 664 mmHg 24%
    10:00 +30°C° 0 mm 4 m/s 665 mmHg 20%
    11:00 +34°C° 0 mm 4 m/s 665 mmHg 16%
    12:00 +35°C° 0 mm 4 m/s 664 mmHg 15%
    13:00 +36°C° 0 mm 4 m/s 664 mmHg 15%
    14:00 +36°C° 0 mm 4 m/s 663 mmHg 14%
    15:00 +35°C° 0 mm 4 m/s 662 mmHg 14%
    16:00 +35°C° 0 mm 4 m/s 662 mmHg 15%
    17:00 +34°C° 0 mm 4 m/s 662 mmHg 16%
    18:00 +30°C° 0 mm 4 m/s 662 mmHg 19%
    19:00 +28°C° 0 mm 3 m/s 662 mmHg 22%
    20:00 +25°C° 0 mm 3 m/s 661 mmHg 26%
    21:00 +24°C° 0 mm 3 m/s 662 mmHg 29%
    22:00 +24°C° 0 mm 3 m/s 662 mmHg 33%
    23:00 +22°C° 0 mm 3 m/s 662 mmHg 36%

    30 Août, Vendredi

    Heure Température Précipitation Vent Pression Humidité
    00:00 +21°C° 0 mm 3 m/s 661 mmHg 38%
    01:00 +20°C° 0 mm 3 m/s 661 mmHg 40%
    02:00 +19°C° 0 mm 3 m/s 660 mmHg 42%
    03:00 +19°C° 0 mm 3 m/s 661 mmHg 43%
    04:00 +19°C° 0 mm 3 m/s 661 mmHg 44%
    05:00 +18°C° 0 mm 3 m/s 661 mmHg 45%
    06:00 +20°C° 0 mm 4 m/s 662 mmHg 41%
    07:00 +22°C° 0 mm 4 m/s 662 mmHg 37%
    08:00 +23°C° 0 mm 5 m/s 663 mmHg 33%
    09:00 +27°C° 0 mm 5 m/s 664 mmHg 28%
    10:00 +30°C° 0 mm 4 m/s 664 mmHg 23%
    11:00 +34°C° 0 mm 4 m/s 664 mmHg 18%
    12:00 +35°C° 0 mm 4 m/s 664 mmHg 16%
    13:00 +36°C° 0 mm 4 m/s 663 mmHg 14%
    14:00 +37°C° 0 mm 4 m/s 662 mmHg 12%
    15:00 +36°C° 0 mm 4 m/s 662 mmHg 14%
    16:00 +35°C° 0 mm 4 m/s 661 mmHg 15%
    17:00 +34°C° 0 mm 4 m/s 661 mmHg 16%
    18:00 +30°C° 0 mm 4 m/s 661 mmHg 20%
    19:00 +27°C° 0 mm 3 m/s 660 mmHg 24%
    20:00 +25°C° 0 mm 3 m/s 660 mmHg 28%
    21:00 +24°C° 0 mm 2 m/s 660 mmHg 31%
    22:00 +23°C° 0 mm 2 m/s 660 mmHg 34%
    23:00 +21°C° 0 mm 2 m/s 660 mmHg 37%

    31 Août, Samedi

    Heure Température Précipitation Vent Pression Humidité
    00:00 +20°C° 0 mm 2 m/s 660 mmHg 40%
    01:00 +19°C° 0 mm 2 m/s 659 mmHg 42%
    02:00 +18°C° 0 mm 2 m/s 659 mmHg 45%
    03:00 +18°C° 0 mm 2 m/s 659 mmHg 44%
    04:00 +18°C° 0 mm 2 m/s 659 mmHg 43%
    05:00 +18°C° 0 mm 3 m/s 659 mmHg 42%
    06:00 +20°C° 0 mm 3 m/s 660 mmHg 38%
    07:00 +21°C° 0 mm 3 m/s 661 mmHg 34%
    08:00 +24°C° 0 mm 3 m/s 661 mmHg 31%
    09:00 +28°C° 0 mm 3 m/s 662 mmHg 25%
    10:00 +31°C° 0 mm 2 m/s 662 mmHg 19%
    11:00 +36°C° 0 mm 2 m/s 663 mmHg 14%
    12:00 +37°C° 0 mm 2 m/s 662 mmHg 13%
    13:00 +38°C° 0 mm 3 m/s 661 mmHg 11%
    14:00 +39°C° 0 mm 3 m/s 660 mmHg 10%
    15:00 +38°C° 0 mm 3 m/s 660 mmHg 11%
    16:00 +37°C° 0 mm 3 m/s 660 mmHg 12%
    17:00 +36°C° 0 mm 4 m/s 659 mmHg 13%
    18:00 +33°C° 0 mm 3 m/s 659 mmHg 16%
    19:00 +29°C° 0 mm 3 m/s 659 mmHg 19%
    20:00 +26°C° 0 mm 2 m/s 659 mmHg 23%
    21:00 +25°C° 0 mm 2 m/s 659 mmHg 23%
    22:00 +24°C° 0 mm 2 m/s 659 mmHg 24%
    23:00 +23°C° 0 mm 2 m/s 659 mmHg 25%
    Voir plus